Regional Weather Roundup
Issued by NWS

Home | Current Version | Previous Version | Graphics & Text | Print | Product List | Glossary On
Versions: 1 2 3 4 5 6 7 8 9 10 11 12 13 14 15 16 17 18 19 20 21 22 23 24 25 26 27 28 29 30 31 32 33 34 35 36 37 38 39 40 41 42 43 44 45 46 47 48 49
000
ASUS45 KBOU 242007
RWRCO

WEATHER ROUNDUP FOR COLORADO
NATIONAL WEATHER SERVICE DENVER/BOULDER CO
100 PM MST WED DEC 24 2014

NOTE: "FAIR" INDICATES FEW OR NO CLOUDS BELOW 12000 FEET WITH NO
SIGNIFICANT WEATHER AND/OR OBSTRUCTIONS TO VISIBILITY.

COZ001>005-013-030-031-242100-
...NORTHWEST COLORADO...

CITY           SKY/WX    TMP DP  RH WIND       PRES   REMARKS
CRAIG          SUNNY     28  12  51 E6        29.98F WCI  22
HAYDEN         SUNNY     21   9  58 SE6       29.97F WCI  14
MEEKER         SUNNY     22  10  60 NE6       29.99F WCI  14
MOUNT WERNER   NOT AVBL
STEAMBOAT SPGS SUNNY     24   8  50 CALM      29.96F
WALDEN         MOSUNNY   19   9  63 S14       29.90F WCI   6
$$

COZ006>008-011-242100-
...WEST CENTRAL VALLEYS...

CITY           SKY/WX    TMP DP  RH WIND       PRES   REMARKS
GRAND JUNCTION SUNNY     31  11  43 S7        30.07F WCI  24
MONTROSE       SUNNY     31  10  41 SW3       30.07F
EAGLE          MOSUNNY   25   9  50 CALM      30.07F
RIFLE          SUNNY     27  10  49 VRB5      30.07F WCI  22
DELTA          SUNNY     34   9  35 CALM      30.07F
NUCLA          SUNNY     34   9  35 CALM      30.08F
$$

COZ017>023-064>068-242100-
...SOUTHWEST COLORADO...

CITY           SKY/WX    TMP DP  RH WIND       PRES   REMARKS
DURANGO        SUNNY     31   4  31 CALM      30.05F
CORTEZ         SUNNY     35  10  35 E3        30.07F
PAGOSA SPRINGS SUNNY     30  -3  24 S3        30.04S
TELLURIDE      SUNNY     33  12  42 SW5       30.02F WCI  28
WOLF CREEK PAS SUNNY     23   7  50 MISG      30.01S
$$

COZ009-010-012-014-032>034-037-058>063-242100-
...CENTRAL COLORADO...

CITY           SKY/WX    TMP DP  RH WIND       PRES   REMARKS
ASPEN          SUNNY     18   6  59 N9        29.98F WCI   7
BUENA VISTA    SUNNY     35   9  34 S3        29.87F
COPPER MTN     MOSUNNY   23  18  80 W9G16     29.94S WCI  13
BERTHOUD PASS  FAIR      12   9  85 MISG      29.83F HAZE
COTTONWOOD PAS SUNNY     37  12  35 W10G25    29.88F
GUNNISON       MOSUNNY    1 -17  42 CALM      30.11F
KREMMLING      MOSUNNY   14   3  62 CALM      30.03F
LEADVILLE      MOSUNNY   29  15  56 NW23G30   29.92R WCI  15
MONARCH PASS     N/A     14  10  85 W43       30.01F WCI -10
SALIDA         SUNNY     37   8  29 SW18G28   29.94S
SUNLIGHT       SUNNY    N/A N/A N/A MISG      29.97F
WILKERSON PASS MOSUNNY   30  14  51 W8        29.90S WCI  23
$$

COZ069>075-242100-
...SAN LUIS VALLEY/SANGRE DE CRISTO MOUNTAINS...

CITY           SKY/WX    TMP DP  RH WIND       PRES   REMARKS
ALAMOSA        SUNNY     29   1  30 N5        29.98F WCI  24
LA VETA PASS   NOT AVBL
SAGUACHE       MOSUNNY   19   5  53 CALM      30.01F
$$

COZ035-036-038>040-242100-
...NORTHERN COLORADO FRONT RANGE...

CITY           SKY/WX    TMP DP  RH WIND       PRES   REMARKS
DENVER INTL AP PTSUNNY   50  17  27 W10       29.68F
DMNS CITY PARK   N/A     50  16  25 W7        29.69S
AURORA         PTSUNNY   50  17  26 W8        29.70F
FRONT RANGE AP NOT AVBL
ERIE MUNI ARPT   N/A     43  15  32 MISG      29.69F
BOULDER MUN AP PTSUNNY   52  14  22 W14       29.68F
CENTENNIAL     PTSUNNY   51  20  29 NW7       29.70F
BROOMFIELD     PTSUNNY   50  18  27 W15       29.70F
FORT COLLINS   PTSUNNY   37  14  38 CALM      29.71S
LONGMONT       PTSUNNY   42  11  28 CALM      29.70F
$$

COZ041-046-047-076>085-087-088-242100-
...PIKES PEAK/PALMER DIVIDE AND SOUTHERN FOOTHILLS...

CITY           SKY/WX    TMP DP  RH WIND       PRES   REMARKS
COLO. SPRINGS  MOSUNNY   40   8  26 SE6       29.75F
A. F. ACADEMY  MOSUNNY   42   8  24 CALM      29.75F
ELLICOTT       NOT AVBL
FALCON         MOSUNNY   44  10  26 SW6       29.76F
FORT CARSON    SUNNY     38  13  35 S6        29.75F
LIMON          SUNNY     41  13  31 S12       29.74F
MONUMENT HILL  MOSUNNY   45  21  39 S7        29.73F
TRINIDAD       SUNNY     34  14  43 CALM      29.79F
$$

COZ042>045-048>051-090-091-242100-
...NORTHEAST COLORADO...

CITY           SKY/WX    TMP DP  RH WIND       PRES   REMARKS
GREELEY ARPT   MOSUNNY   37  12  35 CALM      29.70F
AKRON          SUNNY     41  19  41 SW10      29.69F
BURLINGTON     SUNNY     38  16  40 SW18      29.75F
WRAY           SUNNY     44  21  39 SW12      29.72F
STERLING       SUNNY     34  23  64 SW9       29.70F WCI  26
HOLYOKE        SUNNY     43  23  45 SW12      29.70F
FORT MORGAN    SUNNY     32  18  55 W5        29.71F WCI  28
$$

COZ086-089-092>099-242100-
...SOUTHEAST COLORADO...

CITY           SKY/WX    TMP DP  RH WIND       PRES   REMARKS
PUEBLO         SUNNY     39  12  33 E3        29.77F
LA JUNTA       SUNNY     44  12  27 SW15      29.78F
LAMAR          SUNNY     46   4  17 SW9       29.79F
SPRINGFIELD      N/A     42  14  32 SW10      29.82F
$$



USA.gov is the U.S. government's official web portal to all federal, state and local government web resources and services.